Location: L�gaud
(45.7115°N, 1.7775°E)
Time: 08:08:33
(UTC+00:00)

USA 307 - Pass Details

Date: 03 March 2021
Orbit: 567 x 577 km, 54.0° (Epoch: 10 April)

Event Time Altitude Azimuth Distance (km) Brightness Sun altitude
Rises 19:55:42 0° 296° (WNW) 2,787 7.8 -23.8°
Reaches altitude 10° 19:58:12 10° 308° (NW) 1,886 6.5 -24.3°
Enters shadow 20:01:53 28° 7° (N) 1,084 4.3 -24.9°
